www.pogodaiklimat.ru

ПОГОДА в Порт Алсворт, AK

  • Прогноз погоды в Порт Алсворт
  • Монитор погоды в Порт Алсворт
  • Климат в Порт Алсворт

АРХИВ ПОГОДЫ в Порт Алсворт

Время (UTC), дата Ветер
(напр.,м/с)
 
Видим.   Явления Облачность Т
(С)
Тd
(С)
f
(%)
Тe
(С)
Тes
(С)
Комфортность

P
(гПа)

Po
(гПа)
Тmin
(С)
Tmax
(С)
R
(мм)
SD
(см)
13:57 14.05   48 км    10/0 3000 м
[средняя] 
+5.0  +3.0  87  +4  +4      1001.9         
17:54 14.05   48 км    8/5 1800 м
[средняя] 
+11.0  +5.0  66  +11  +13      1001.6         
19:58 14.05 ЮЗ  48 км    5/5 1800 м  +13.0  +7.0  67  +11  +15      1001.2         
21:50 14.05 ЮЗ  48 км    8/5 1800 м
[средняя] 
+13.0  +7.0  67  +12  +14      1000.6         
23:53 14.05 ЮЗ  48 км    8/5 1800 м
[средняя] 
+12.0  +5.0  62  +9  +10      1000.6         
13:50 15.05   48 км  слабый дождь  10/10 1800 м  +4.0  +3.0  93  +3  +3      999.9         
15:50 15.05   48 км    10/8 1050 м
[средняя] 
+6.0  +3.0  81  +5  +5      999.6         
17:53 15.05   24 км  слабый дождь  10/10 1200 м  +7.0  +5.0  87  +6  +6      998.6         
19:57 15.05   24 км  слабый дождь  10/10 1050 м  +10.0  +8.0  87  +9  +9      998.2         
21:50 15.05 ЮЗ  32 км    10/8 1050 м
[средняя] 
+12.0  +8.0  76  +10  +11      997.6         
23:50 15.05 ЮЗ  48 км    10/8 1050 м
[средняя] 
+12.0  +8.0  76  +9  +10      996.5         
01:54 16.05 ЮЗ  48 км    10/8 1050 м
[средняя] 
+12.0  +8.0  76  +10  +10      996.2         
13:55 16.05   48 км    8/0 3000 м
[средняя] 
+4.0  0.0  75  +3  +3      992.9         
15:53 16.05   48 км    8/5 150 м
[средняя] 
+7.0  +3.0  76  +6  +7      992.5         
19:53 16.05   48 км    10/8 1200 м
[средняя] 
+12.0  +6.0  67  +12  +12      989.8         
21:50 16.05 ЮЗ  48 км    10/8 1800 м
[средняя] 
+12.0  +7.0  71  +9  +9      989.8         
23:57 16.05 ЮЗ  48 км    8/8 1800 м
[средняя] 
+13.0  +7.0  67  +11  +11      989.5         
15:58 17.05   48 км    8/0 2400 м
[средняя] 
+6.0  +2.0  75  +5  +6      989.8         
17:58 17.05 ЮЗ  48 км    8/0 3000 м
[средняя] 
+12.0  +7.0  71  +10  +11      990.2         
19:50 17.05 ЮЗ  48 км    8/8 1800 м  +13.0  +6.0  62  +11  +12      990.5         
21:55 17.05 ЮЗ  48 км  слабый дождь  10/10 1200 м  +11.0  +5.0  66  +8  +8      991.2         
23:50 17.05 ЮЗ  48 км    8/5 1200 м
[средняя] 
+13.0  +6.0  62  +11  +12      991.9         
13:52 18.05   64 км    ясно  +1.0  -2.0  80  0  0      997.6         
15:57 18.05   64 км    2/0 3000 м
[средняя] 
+7.0  +3.0  76  +6  +8      996.5         
17:58 18.05   64 км    8/0 3000 м
[средняя] 
+12.0  +7.0  71  +12  +15      997.6         
19:53 18.05   64 км    8/0 3000 м
[средняя] 
+16.0  +7.0  55  +16  +22      997.6         
21:55 18.05 СВ  64 км    8/0 3000 м
[средняя] 
+18.0  +10.0  59  +18  +22      997.2         
23:55 18.05   64 км    8/0 3000 м
[средняя] 
+17.0  +9.0  59  +17  +24      996.9         
13:56 19.05   48 км    8/0 6000 м
[средняя] 
+6.0  +2.0  75  +5  +5      994.9         
15:58 19.05 СВ  48 км    8/0 3000 м
[средняя] 
+9.0  +5.0  76  +5  +5      994.5         
19:56 19.05 СВ  48 км    10/0 2400 м
[средняя] 
+12.0  +7.0  71  +9  +10      993.5         
21:50 19.05 СВ  48 км    8/0 2400 м
[средняя] 
+13.0  +6.0  62  +11  +13      993.2         
23:54 19.05 СВ  48 км    8/0 2400 м
[средняя] 
+14.0  +6.0  59  +13  +16      992.9         
01:51 20.05 В  48 км    8/0 2100 м
[средняя] 
+15.0  +6.0  55  +13  +13      992.9         
13:51 20.05 СВ  48 км    8/0 2100 м
[средняя] 
+4.0  +1.0  81  0  0      994.5         
15:55 20.05   48 км    10/10 1800 м  +6.0  +4.0  87  +5  +5      995.2         
17:57 20.05   40 км    10/8 1800 м
[средняя] 
+6.0  +4.0  87  +5  +6      995.5         
19:50 20.05   32 км    10/10 1050 м  +11.0  +9.0  87  +10  +10      996.2         
21:50 20.05 ЮЗ  40 км    10/10 1050 м  +13.0  +9.0  77  +14  +14      996.9         
23:50 20.05 ЮЗ  48 км    8/8 1800 м
[средняя] 
+16.0  +8.0  59  +15  +15      997.6         
13:57 21.05   48 км    8/0 3000 м
[средняя] 
+3.0  +1.0  87  +2  +2      1005.9         
15:55 21.05   64 км    5/0 3000 м
[средняя] 
+9.0  +4.0  71  +8  +10      1006.3         
17:57 21.05   64 км    8/0 3000 м
[средняя] 
+11.0  +6.0  71  +11  +14      1006.9         
19:50 21.05   64 км    8/0 3000 м
[средняя] 
+13.0  +7.0  67  +13  +19      1007.3         
23:52 21.05 З  64 км    8/0 2100 м
[средняя] 
+16.0  +9.0  63  +15  +19      1006.9         
13:50 22.05   48 км    8/0 2400 м
[средняя] 
+3.0  +1.0  87  +2  +2      1005.9         
23:50 22.05 В  48 км    10/0 2400 м
[средняя] 
+14.0  +6.0  59  +12  +12      1001.6         
15:59 24.05   64 км    2/0 6000 м
[средняя] 
+11.0  +9.0  87  +10  +12      1012.6         

 

Местоположение метеостанции Port Alsworth Airport: широта 60.2000 долгота -154.3200 высота над уровнем моря 85 м.

В архиве по умолчанию представлена погода в Порт Алсворт за последние 1-2 суток. Обновление информации о фактической погоде в базе происходит ежечасно! Архивные данные за месяц целиком и за предыдущие месяцы Вы можете получить, выбрав интересующий диапазон дат из раскрывающегося списка и нажав кнопку "Ввод!".

Внимание! Архив погоды МЕТАР в базе сайта хранится не более 60 дней. Нет смысла пытаться выбрать более раннюю дату.

Внимание! Время в таблицах - всемирное. Для получения местного времени необходимо прибавить поправку, которая в Порт Алсворт равна -9 ч.

Ветер - указаны скорость ветра в м/с и направление, откуда дует ветер: С - северный, СВ - северо-восточный, В - восточный, ЮВ - юго-восточный, Ю - южный, ЮЗ - юго-западный, З - западный, СЗ - северо-западный.
Видимость - горизонтальная дальность видимости в метрах или километрах. При видимости от 1 до 10 км при отсутствии осадков обычно наблюдается дымка, при ухудшении видимости до 1 км и менее - туман. В сухую погоду видимость может ухудшаться дымом, пылью или мглою.
Атмосферные явления - указаны явления, наблюдавшиеся в указанный момент времени.
Облачность - указаны через наклонную черту верхняя и нижняя облачность в баллах и высота нижней границы облаков в метрах. Внимание: облачность, как и прочие метеорологические величины в США измеряются автоматическими метеостанциями. Указанные значения в баллах носят условный характер и показывают процент времени, в течение которого, в среднем, лазерный луч высотомера отражался от облаков обратно.
T - Температура воздуха - температура, измеренная на высоте 2 м над землей.
Td - Температура точки росы - температура, при понижении до которой содержащийся в воздухе водяной пар достигнет насыщения.
f - Относительная влажность воздуха - влажноcть воздуха, измеренная на высоте 2 м над землей.
Te - Эффективная температура - температура, которую ощущает одетый по сезону человек в тени. Характеристика душности погоды. При расчете учитывается влияние влажности воздуха и скорости ветра на теплоощущения человека.
Tes - Эффективная температура на солнце - температура, которую ощущает человек, с поправкой на солнечный нагрев. Характеристика знойности погоды. Зависит от высоты солнца над горизонтом, облачности и скорости ветра. Ночью, в пасмурную погоду, а также при ветре 12 м/с и более поправка равна нулю.
P - Атмосферное давление - приведенное к уровню моря атмосферное давление.
Po - Атмосферное давление - измеренное на уровне метеостанции атмосферное давление.
Tmin - Минимальная температура - минимум температуры воздуха на высоте 2 м над землей.
Tmax - Максимальная температура - максимум температуры воздуха на высоте 2 м над землей.
R - Количество осадков - Количество выпавших осадков за 3 или 6 часов, мм.
SD - Снежный покров - Высота снежного покрова, см.